Location: Teplice
(50.6330°N, 13.8330°E)
Time: 11:20:04
(UTC+01:00)

ISS - Visible Passes

Search period start: 17 November 2025 00:00
Search period end: 27 November 2025 00:00
Orbit: 415 x 420 km, 51.6° (Epoch: 16 November)

Date Brightness Start Highest point End Pass type
(mag) Time Alt. Az. Time Alt. Az. Time Alt. Az.
17 Nov -3.8 18:13:43 10° WSW 18:17:02 63° SSE 18:17:12 62° SE visible
18 Nov -3.2 17:25:41 10° SW 17:28:55 46° SSE 17:30:57 20° E visible
18 Nov -1.5 19:02:15 10° W 19:03:52 26° W 19:03:52 26° W visible
19 Nov -3.9 18:14:01 10° W 18:17:23 85° NNW 18:17:34 78° ENE visible
20 Nov -3.8 17:25:47 10° WSW 17:29:08 79° SSE 17:31:12 21° ENE visible
20 Nov -1.4 19:02:37 10° W 19:04:07 24° WNW 19:04:07 24° WNW visible
21 Nov -3.8 18:14:19 10° W 18:17:39 72° N 18:17:44 72° N visible
22 Nov -3.8 17:25:58 10° W 17:29:19 77° N 17:31:19 22° ENE visible
22 Nov -1.3 19:02:49 10° WNW 19:04:13 23° WNW 19:04:13 23° WNW visible
23 Nov -3.9 18:14:27 10° W 18:17:48 78° N 18:17:48 78° N visible
24 Nov -3.8 17:26:03 10° W 17:29:24 73° N 17:31:22 23° E visible
24 Nov -1.3 19:02:52 10° WNW 19:04:17 23° W 19:04:17 23° W visible
25 Nov -3.7 16:37:37 10° W 16:40:58 73° N 16:44:19 10° E visible
25 Nov -3.8 18:14:26 10° WNW 18:17:47 77° SSW 18:17:52 76° S visible
26 Nov -3.8 17:25:59 10° WNW 17:29:20 87° N 17:31:31 20° ESE visible
26 Nov -1.2 19:02:52 10° W 19:04:26 22° WSW 19:04:26 22° WSW visible
